Location: Bottenau
(48.5138°N, 8.0462°E)
Time: 20:17:21
(UTC+00:00)

ATLAS 3B R/B - Pass Details

Date: 30 July 2021
Orbit: 1001 x 1194 km, 63.8° (Epoch: 09 September)

Event Time Altitude Azimuth Distance (km) Brightness Sun altitude
Rises 21:45:07 0° 308° (NW) 3,948 6.9 -18.9°
Reaches altitude 10° 21:49:03 10° 287° (WNW) 3,023 5.7 -19.2°
Maximum altitude 21:52:52 15° 255° (WSW) 2,673 4.9 -19.5°
Drops below altitude 10° 21:56:44 10° 223° (SW) 3,076 4.9 -19.8°
Enters shadow 21:58:22 - 213° (SSW) 3,420 5.0 -19.9°
